Regional Weather Roundup
Issued by NWS

Home | Current Version | Previous Version | Graphics & Text | Print | Product List | Glossary On
Versions: 1 2 3 4 5 6 7 8 9 10 11 12 13 14 15 16 17 18 19 20 21 22 23 24 25 26 27 28 29 30 31 32 33 34 35 36 37 38 39 40 41 42 43 44 45 46 47 48 49 50
000
ASUS45 KTFX 220304
RWRMT
MONTANA HOURLY WEATHER ROUNDUP
NATIONAL WEATHER SERVICE GREAT FALLS MT
904 PM MDT SUN SEP 21 2014

NOTE: "FAIR" INDICATES FEW OR NO CLOUDS BELOW 12000 FEET WITH NO
SIGNIFICANT WEATHER AND/OR OBSTRUCTIONS TO VISIBILITY.

* THESE STATIONS ARE NOT UNDER NWS QUALITY CONTROL. THEY DO NOT
   REPORT WEATHER SUCH AS PRECIPITATION OR FOG.

MTZ001>007-043-220400-
WEST OF THE DIVIDE
CITY           SKY/WX    TMP DP  RH WIND       PRES   REMARKS
KALISPELL      CLEAR     59  48  67 CALM      29.95R
MISSOULA       PTCLDY    70  45  41 CALM      29.96R
BUTTE          MOCLDY    64  41  43 SW5       30.14R
MULLAN PASS    MOCLDY    66  37  34 NW5       30.14S
* ESSEX        N/A       59  45  60 SE3        N/A
* LINCOLN      N/A       65  39  39 N2G12      N/A
* LOOKOUT PASS N/A       65  43  45 N2         N/A
* POLSON       N/A       62  42  48 N/A        N/A
* RONAN APT    PTCLDY    59  45  60 N/A        N/A
* SEELEY LAKE  N/A       65  38  37 NE2G7      N/A
* THOMP F APT  PTCLDY    61  42  50 S3G10      N/A
$$

MTZ008-052>055-220400-
SOUTHWEST MONTANA
CITY           SKY/WX    TMP DP  RH WIND       PRES   REMARKS
BOZEMAN        MOCLDY    57  46  67 SE5       30.10S
DILLON         CLOUDY    61  45  56 NW3       30.11R
W YELLOWSTONE  CLOUDY    59  43  56 SW10      30.23R
* THREE FORKS  MOCLDY    61  61 100 N/A        N/A
* BOULDER HILL N/A       62  38  41 S6         N/A
* MONIDA PASS  N/A       59  40  50 S11        N/A
* RAYNOLDS PAS N/A       57  38  49 SE2        N/A
* WHITEHALL    N/A       65  39  39 N6         N/A
* WISE RIVER   N/A       63  36  37 SE3G8      N/A
$$

MTZ009>010-012-014-046-048-049-054-220400-
EAST SLOPES AND CENTRAL MONTANA
CITY           SKY/WX    TMP DP  RH WIND       PRES   REMARKS
CUT BANK       CLEAR     63  41  45 SE10      30.04S
GREAT FALLS    PTCLDY    63  46  54 SE5       30.03S
HELENA         PTCLDY    64  46  52 W3        30.05R
MALMSTROM AFB  PTCLDY    61  48  62 SE13      30.04S
* CONRAD       CLEAR     54  45  72 N/A        N/A
* EAST GLACIER N/A       59  44  58 N6         N/A
* MONARCH      N/A       57  43  60 S12        N/A
* PENDROY      N/A       59  45  60 SW6        N/A
* ROGERS PASS  N/A       56  39  53 NW3        N/A
* SAINT MARY   N/A       61  39  44 S2G10      N/A
* SWEET GRASS  N/A       62  43  50 S17        N/A
$$

MTZ011-013-016-021-035-040-045-047-050-051-220400-
NORTH CENTRAL MONTANA
CITY           SKY/WX    TMP DP  RH WIND       PRES   REMARKS
HAVRE          CLEAR     63  46  54 E10       30.02F
LEWISTOWN      PTCLDY    57  43  60 E8        30.11F
* CHESTER      N/A       65  44  47 SE6G11     N/A
* DENTON       N/A       62  38  41 SE10       N/A
* GEYSER       N/A       51  47  86 SW7        N/A
* JUDITH GAP   N/A       58  45  62 SE12       N/A
* LOMA         N/A       65  47  52 NE14       N/A
$$

MTZ017>020-022>027-061-062-220400-
NORTHEAST MONTANA
CITY           SKY/WX    TMP DP  RH WIND       PRES   REMARKS
GLASGOW        CLEAR     57  37  47 E10       30.11R
JORDAN         CLEAR     57  43  60 E3        30.13S
SIDNEY         CLEAR     52  36  55 CALM      30.18S
WOLF POINT     CLEAR     55  39  55 E6        30.13S
* BEAVER HILL  N/A       55  34  45 SE9        N/A
* CIRCLE       N/A       59  40  50 N/A        N/A
* LINDSAY DVD  N/A       55  34  45 E4         N/A
$$

MTZ028>042-056>058-220400-
SOUTHCENTRAL AND SOUTHEAST MONTANA
CITY           SKY/WX    TMP DP  RH WIND       PRES   REMARKS
BAKER          CLEAR     48  37  66 SE6       30.21S
BILLINGS       MOCLDY    64  43  47 N5        30.10F
LIVINGSTON     MOCLDY    63  46  54 SE8       30.13S
MILES CITY     CLEAR     66  36  33 SE6       30.14S
* LAUREL APT   MOCLDY    66  41  40 N5         N/A
* ROUNDUP APT  PTCLDY    64  43  47 N/A        N/A
* ALZADA       N/A       63  35  35 E9         N/A
* HYSHAM       N/A       65  40  40 SE4        N/A
* LAME DEER    N/A       63  42  46 SE9        N/A
* REED POINT   N/A       62  41  46 S1         N/A
* ROSCOE HILL  N/A       59  40  50 SW2        N/A
$$

REGIONAL REPORTS...DAKOTAS
CITY           SKY/WX    TMP DP  RH WIND       PRES   REMARKS
WILLISTON      CLEAR     54  39  57 CALM      30.17S
DICKINSON      CLEAR     46  37  71 SE7       30.20S
BEACH          N/A       48  37  66 S5        30.20S
CROSBY         CLEAR     50  41  71 S9        30.17R
TIOGA          CLEAR     48  36  63 CALM      30.22R
WATFORD CITY   HAZE      50  36  59 N3        30.16S
BISMARCK       CLEAR     54  45  72 E3        30.22S
GRAND FORKS    CLEAR     52  48  86 S8        30.19R
FARGO          CLEAR     54  48  80 SE6       30.21S
BUFFALO SD     CLEAR     54  36  51 SE8       30.17S
RAPID CITY     PTCLDY    50  39  66 CALM      30.26R
$$

REGIONAL REPORTS...WYOMING/IDAHO/WASHINGTON
CITY           SKY/WX    TMP DP  RH WIND       PRES   REMARKS
GILLETTE       MOCLDY    63  41  45 SE13      30.22S
SHERIDAN       MOCLDY    64  43  47 SE10      30.13F
CODY           CLOUDY   N/A N/A N/A N/A        N/A
YELLOWSTONE LA MOCLDY    52  45  77 CALM      30.34R
SALMON         CLOUDY    66  45  47 CALM      29.99R
MULLAN PASS    MOCLDY    66  37  34 NW5       30.14S
SAND POINT     CLEAR     61  52  72 CALM      29.90S
SPOKANE        PTCLDY    73  39  29 SW3       29.90S

$$




USA.gov is the U.S. government's official web portal to all federal, state and local government web resources and services.